ADC006 SKPS-SKPE

Flight info

Callsign ADC006
Flight time 1h 5m
Altitude 20000
Route ANKA2B ANKAS ISOPA CLO TOROL TORO1G
Aircraft AT75/M-SKBO/2200

Departure

Time 2026-04-23 16:40
Airport Antonio Nariño Airport (SKPS)

Arrival

Time 2026-04-23 17:45
Airport Matecaña International Airport (SKPE)
Time Latitude Longitude Altitude Speed Heading
2026-04-23 16:26 1.39575 -77.29038 5956 ft 0 kts 105°
2026-04-23 16:29 1.39577 -77.29045 5956 ft 2 kts 105°
2026-04-23 16:30 1.39582 -77.29062 5956 ft 3 kts 106°
2026-04-23 16:30 1.39588 -77.29081 5956 ft 3 kts 110°
2026-04-23 16:30 1.39588 -77.29083 5956 ft 0 kts 122°
2026-04-23 16:31 1.39588 -77.29082 5956 ft 0 kts 122°
2026-04-23 16:32 1.39587 -77.29082 5956 ft 0 kts 123°
2026-04-23 16:33 1.39587 -77.29081 5956 ft 0 kts 123°
2026-04-23 16:34 1.39587 -77.29080 5956 ft 0 kts 123°
2026-04-23 16:35 1.39575 -77.29063 5956 ft 4 kts 130°
2026-04-23 16:35 1.39516 -77.29088 5956 ft 14 kts 230°
2026-04-23 16:35 1.39488 -77.29179 5956 ft 11 kts 211°
2026-04-23 16:36 1.39396 -77.29204 5956 ft 14 kts 191°
2026-04-23 16:36 1.39300 -77.29229 5956 ft 13 kts 198°
2026-04-23 16:36 1.39207 -77.29254 5956 ft 15 kts 194°
2026-04-23 16:36 1.39106 -77.29282 5956 ft 15 kts 194°
2026-04-23 16:37 1.39000 -77.29309 5956 ft 16 kts 193°
2026-04-23 16:37 1.38892 -77.29335 5956 ft 16 kts 193°
2026-04-23 16:37 1.38779 -77.29362 5956 ft 17 kts 193°
2026-04-23 16:37 1.38701 -77.29367 5956 ft 10 kts 173°
2026-04-23 16:38 1.38644 -77.29379 5956 ft 8 kts 269°
2026-04-23 16:38 1.38653 -77.29391 5956 ft 1 kts 348°
2026-04-23 16:38 1.38658 -77.29392 5956 ft 1 kts 352°
2026-04-23 16:38 1.38692 -77.29388 5956 ft 12 kts 12°
2026-04-23 16:39 1.38957 -77.29322 5956 ft 76 kts 15°
2026-04-23 16:39 1.39682 -77.29132 5957 ft 135 kts 15°
2026-04-23 16:39 1.40705 -77.28878 6012 ft 158 kts 15°
2026-04-23 16:39 1.41710 -77.28590 6511 ft 152 kts 17°
2026-04-23 16:40 1.42853 -77.28222 6610 ft 195 kts 19°
2026-04-23 16:40 1.44124 -77.27840 7414 ft 182 kts 14°
2026-04-23 16:40 1.45378 -77.27533 7955 ft 196 kts 15°
2026-04-23 16:40 1.46788 -77.27219 8196 ft 215 kts
2026-04-23 16:41 1.48327 -77.27146 8489 ft 227 kts
2026-04-23 16:41 1.49929 -77.27267 8773 ft 234 kts 354°
2026-04-23 16:41 1.51550 -77.27533 9054 ft 238 kts 349°
2026-04-23 16:41 1.53167 -77.27911 9333 ft 240 kts 346°
2026-04-23 16:42 1.54778 -77.28384 9613 ft 240 kts 342°
2026-04-23 16:42 1.56369 -77.28934 9835 ft 243 kts 343°
2026-04-23 16:42 1.58032 -77.29315 9959 ft 247 kts 350°
2026-04-23 16:42 1.59740 -77.29595 9995 ft 253 kts 351°
2026-04-23 16:43 1.61490 -77.29888 10000 ft 259 kts 350°
2026-04-23 16:43 1.62686 -77.30121 10004 ft 263 kts 349°
2026-04-23 16:43 1.65095 -77.30695 10002 ft 268 kts 345°
2026-04-23 16:43 1.66281 -77.31046 10002 ft 269 kts 342°
2026-04-23 16:44 1.68102 -77.31461 9995 ft 271 kts 355°
2026-04-23 16:44 1.69995 -77.31382 10006 ft 270 kts
2026-04-23 16:44 1.71853 -77.31054 10003 ft 271 kts 12°
2026-04-23 16:44 1.73686 -77.30642 9998 ft 272 kts 13°
2026-04-23 16:45 1.75543 -77.30216 9996 ft 273 kts 13°
2026-04-23 16:45 1.77404 -77.29824 9984 ft 275 kts 11°
2026-04-23 16:45 1.79279 -77.29489 9978 ft 276 kts
2026-04-23 16:45 1.81187 -77.29226 9975 ft 276 kts
2026-04-23 16:46 1.83077 -77.28924 9963 ft 276 kts 15°
2026-04-23 16:46 1.84840 -77.28191 9972 ft 276 kts 27°
2026-04-23 16:46 1.86494 -77.27208 9968 ft 276 kts 32°
2026-04-23 16:46 1.88096 -77.26139 10001 ft 275 kts 34°
2026-04-23 16:47 1.89607 -77.25031 10170 ft 269 kts 40°
2026-04-23 16:47 1.90941 -77.23792 10603 ft 253 kts 45°
2026-04-23 16:47 1.92185 -77.22583 11038 ft 242 kts 42°
2026-04-23 16:47 1.93406 -77.21458 11470 ft 239 kts 41°
2026-04-23 16:48 1.94663 -77.20377 11920 ft 237 kts 41°
2026-04-23 16:48 1.95928 -77.19337 12366 ft 236 kts 40°
2026-04-23 16:48 1.97210 -77.18320 12814 ft 235 kts 39°
2026-04-23 16:48 1.98510 -77.17311 13266 ft 235 kts 38°
2026-04-23 16:49 1.99815 -77.16313 13717 ft 235 kts 38°
2026-04-23 16:49 2.01112 -77.15330 14165 ft 235 kts 38°
2026-04-23 16:49 2.02421 -77.14342 14618 ft 234 kts 38°
2026-04-23 16:49 2.03712 -77.13371 15064 ft 234 kts 38°
2026-04-23 16:50 2.05018 -77.12392 15515 ft 234 kts 38°
2026-04-23 16:50 2.06311 -77.11424 15961 ft 234 kts 38°
2026-04-23 16:50 2.07618 -77.10446 16413 ft 233 kts 38°
2026-04-23 16:50 2.08922 -77.09471 16864 ft 233 kts 38°
2026-04-23 16:51 2.10224 -77.08496 17313 ft 234 kts 38°
2026-04-23 16:51 2.11517 -77.07529 17761 ft 234 kts 37°
2026-04-23 16:51 2.12832 -77.06544 18216 ft 233 kts 37°
2026-04-23 16:51 2.14127 -77.05576 18664 ft 233 kts 37°
2026-04-23 16:52 2.15431 -77.04602 19114 ft 233 kts 37°
2026-04-23 16:52 2.16720 -77.03639 19560 ft 233 kts 37°
2026-04-23 16:52 2.18047 -77.02647 19844 ft 241 kts 37°
2026-04-23 16:52 2.19415 -77.01601 19882 ft 256 kts 38°
2026-04-23 16:53 2.20843 -77.00468 19876 ft 268 kts 39°
2026-04-23 16:53 2.22315 -76.99271 19869 ft 277 kts 39°
2026-04-23 16:53 2.23825 -76.98034 19862 ft 284 kts 39°
2026-04-23 16:53 2.25359 -76.96785 19856 ft 287 kts 39°
2026-04-23 16:54 2.26932 -76.95526 19851 ft 289 kts 38°
2026-04-23 16:54 2.28526 -76.94280 19848 ft 290 kts 38°
2026-04-23 16:54 2.30129 -76.93061 19842 ft 291 kts 37°
2026-04-23 16:54 2.31766 -76.91848 19839 ft 292 kts 36°
2026-04-23 16:55 2.33402 -76.90670 19838 ft 292 kts 35°
2026-04-23 16:55 2.35069 -76.89504 19838 ft 292 kts 34°
2026-04-23 16:55 2.36765 -76.88355 19838 ft 292 kts 33°
2026-04-23 16:55 2.38464 -76.87250 19832 ft 292 kts 32°
2026-04-23 16:56 2.40190 -76.86190 19818 ft 293 kts 31°
2026-04-23 16:56 2.41923 -76.85109 19812 ft 293 kts 34°
2026-04-23 16:56 2.43594 -76.83928 19811 ft 293 kts 36°
2026-04-23 16:56 2.45246 -76.82761 19810 ft 293 kts 34°
2026-04-23 16:57 2.46944 -76.81628 19810 ft 293 kts 33°
2026-04-23 16:57 2.48685 -76.80547 19811 ft 293 kts 31°
2026-04-23 16:57 2.50446 -76.79528 19811 ft 293 kts 29°
2026-04-23 16:57 2.52240 -76.78550 19810 ft 293 kts 28°
2026-04-23 16:58 2.54051 -76.77611 19810 ft 293 kts 27°
2026-04-23 16:58 2.55854 -76.76711 19809 ft 293 kts 26°
2026-04-23 16:58 2.57700 -76.75817 19808 ft 293 kts 25°
2026-04-23 16:58 2.59529 -76.74949 19808 ft 293 kts 25°
2026-04-23 16:59 2.61392 -76.74079 19809 ft 293 kts 25°
2026-04-23 16:59 2.63240 -76.73227 19810 ft 293 kts 25°
2026-04-23 16:59 2.65080 -76.72386 19814 ft 292 kts 24°
2026-04-23 16:59 2.66952 -76.71537 19818 ft 292 kts 24°
2026-04-23 17:00 2.68801 -76.70703 19819 ft 292 kts 24°
2026-04-23 17:00 2.70647 -76.69875 19819 ft 292 kts 24°
2026-04-23 17:00 2.72514 -76.69040 19820 ft 292 kts 24°
2026-04-23 17:00 2.74373 -76.68212 19820 ft 292 kts 24°
2026-04-23 17:01 2.76221 -76.67392 19821 ft 292 kts 24°
2026-04-23 17:01 2.78083 -76.66569 19822 ft 292 kts 24°
2026-04-23 17:01 2.79958 -76.65745 19823 ft 292 kts 24°
2026-04-23 17:01 2.81814 -76.64935 19825 ft 292 kts 24°
2026-04-23 17:02 2.83061 -76.64394 19834 ft 292 kts 24°
2026-04-23 17:02 2.85551 -76.63322 19840 ft 292 kts 23°
2026-04-23 17:02 2.87429 -76.62524 19839 ft 292 kts 23°
2026-04-23 17:02 2.89307 -76.61735 19840 ft 292 kts 22°
2026-04-23 17:03 2.91180 -76.60962 19842 ft 292 kts 22°
2026-04-23 17:03 2.93070 -76.60200 19844 ft 292 kts 22°
2026-04-23 17:03 2.94964 -76.59460 19845 ft 292 kts 21°
2026-04-23 17:03 2.96865 -76.58752 19846 ft 292 kts 20°
2026-04-23 17:04 2.98784 -76.58091 19846 ft 292 kts 18°
2026-04-23 17:04 3.00685 -76.57374 19859 ft 292 kts 25°
2026-04-23 17:04 3.02484 -76.56407 19874 ft 291 kts 30°
2026-04-23 17:04 3.04227 -76.55364 19879 ft 292 kts 31°
2026-04-23 17:05 3.05959 -76.54329 19881 ft 292 kts 31°
2026-04-23 17:05 3.07722 -76.53318 19882 ft 292 kts 30°
2026-04-23 17:05 3.09527 -76.52337 19889 ft 292 kts 28°
2026-04-23 17:05 3.11328 -76.51408 19892 ft 292 kts 27°
2026-04-23 17:06 3.13140 -76.50514 19896 ft 292 kts 26°
2026-04-23 17:06 3.14974 -76.49642 19902 ft 292 kts 25°
2026-04-23 17:06 3.16827 -76.48786 19905 ft 292 kts 25°
2026-04-23 17:06 3.18686 -76.47947 19917 ft 292 kts 25°
2026-04-23 17:07 3.20539 -76.47127 19922 ft 293 kts 24°
2026-04-23 17:07 3.22419 -76.46307 19925 ft 293 kts 24°
2026-04-23 17:07 3.24282 -76.45508 19926 ft 293 kts 24°
2026-04-23 17:07 3.26163 -76.44714 19927 ft 293 kts 23°
2026-04-23 17:08 3.28056 -76.43930 19930 ft 293 kts 23°
2026-04-23 17:08 3.29925 -76.43175 19932 ft 293 kts 22°
2026-04-23 17:08 3.31834 -76.42429 19935 ft 293 kts 21°
2026-04-23 17:08 3.33736 -76.41722 19938 ft 293 kts 20°
2026-04-23 17:09 3.35668 -76.41058 19941 ft 293 kts 19°
2026-04-23 17:09 3.37588 -76.40342 19946 ft 293 kts 24°
2026-04-23 17:09 3.39407 -76.39462 19954 ft 292 kts 27°
2026-04-23 17:09 3.41238 -76.38532 19954 ft 292 kts 27°
2026-04-23 17:10 3.43052 -76.37643 19953 ft 292 kts 26°
2026-04-23 17:10 3.44905 -76.36791 19957 ft 292 kts 24°
2026-04-23 17:10 3.46762 -76.35995 19957 ft 293 kts 23°
2026-04-23 17:10 3.48672 -76.35226 19956 ft 293 kts 22°
2026-04-23 17:11 3.50579 -76.34499 19955 ft 293 kts 21°
2026-04-23 17:11 3.52492 -76.33802 19957 ft 293 kts 20°
2026-04-23 17:11 3.54420 -76.33122 19964 ft 293 kts 20°
2026-04-23 17:11 3.56343 -76.32461 19963 ft 293 kts 19°
2026-04-23 17:12 3.58272 -76.31812 19966 ft 293 kts 19°
2026-04-23 17:12 3.60223 -76.31164 19968 ft 293 kts 19°
2026-04-23 17:12 3.62147 -76.30533 19967 ft 293 kts 19°
2026-04-23 17:12 3.64095 -76.29899 19968 ft 293 kts 18°
2026-04-23 17:13 3.66023 -76.29275 19965 ft 293 kts 18°
2026-04-23 17:13 3.67979 -76.28644 19964 ft 293 kts 18°
2026-04-23 17:13 3.69904 -76.28025 19960 ft 294 kts 18°
2026-04-23 17:13 3.71852 -76.27400 19954 ft 294 kts 18°
2026-04-23 17:14 3.73804 -76.26773 19952 ft 294 kts 18°
2026-04-23 17:14 3.75776 -76.26140 19953 ft 294 kts 18°
2026-04-23 17:14 3.77714 -76.25521 19952 ft 294 kts 18°
2026-04-23 17:14 3.79675 -76.24895 19951 ft 294 kts 18°
2026-04-23 17:15 3.81607 -76.24280 19951 ft 295 kts 18°
2026-04-23 17:15 3.83580 -76.23654 19956 ft 295 kts 18°
2026-04-23 17:15 3.85526 -76.23037 19955 ft 295 kts 18°
2026-04-23 17:15 3.87485 -76.22418 19946 ft 296 kts 18°
2026-04-23 17:16 3.89469 -76.21790 19938 ft 297 kts 18°
2026-04-23 17:16 3.90773 -76.21377 19937 ft 298 kts 18°
2026-04-23 17:16 3.92768 -76.20746 19939 ft 298 kts 18°
2026-04-23 17:16 3.94735 -76.20127 19939 ft 298 kts 18°
2026-04-23 17:17 3.96711 -76.19508 19943 ft 298 kts 18°
2026-04-23 17:17 3.98703 -76.18888 19951 ft 298 kts 18°
2026-04-23 17:17 4.00701 -76.18272 19956 ft 299 kts 17°
2026-04-23 17:17 4.02674 -76.17669 19957 ft 299 kts 17°
2026-04-23 17:18 4.06671 -76.16463 19969 ft 299 kts 16°
2026-04-23 17:18 4.08665 -76.15872 19976 ft 300 kts 16°
2026-04-23 17:18 4.10670 -76.15288 19979 ft 300 kts 16°
2026-04-23 17:19 4.12669 -76.14718 19980 ft 300 kts 15°
2026-04-23 17:19 4.14682 -76.14158 19988 ft 300 kts 14°
2026-04-23 17:19 4.16722 -76.13613 19996 ft 300 kts 14°
2026-04-23 17:19 4.18725 -76.13106 19998 ft 300 kts 13°
2026-04-23 17:20 4.20761 -76.12632 19999 ft 300 kts 12°
2026-04-23 17:20 4.24811 -76.11591 20003 ft 301 kts 19°
2026-04-23 17:21 4.28801 -76.10003 19252 ft 322 kts 21°
2026-04-23 17:21 4.30919 -76.09156 18602 ft 334 kts 20°
2026-04-23 17:21 4.35344 -76.07499 17358 ft 346 kts 19°
2026-04-23 17:22 4.37650 -76.06711 16728 ft 348 kts 17°
2026-04-23 17:22 4.42264 -76.05300 15484 ft 348 kts 15°
2026-04-23 17:23 4.46964 -76.04070 14225 ft 345 kts 12°
2026-04-23 17:23 4.49291 -76.03531 13600 ft 343 kts 11°
2026-04-23 17:23 4.53917 -76.02598 12349 ft 328 kts
2026-04-23 17:24 4.56124 -76.02241 11723 ft 315 kts
2026-04-23 17:24 4.58266 -76.01980 11096 ft 306 kts
2026-04-23 17:24 4.62293 -76.01033 10110 ft 285 kts 20°
2026-04-23 17:25 4.65686 -75.99536 9858 ft 252 kts 22°
2026-04-23 17:25 4.67282 -75.98858 9709 ft 244 kts 21°
2026-04-23 17:26 4.70367 -75.97643 9445 ft 231 kts 18°
2026-04-23 17:26 4.72968 -75.96445 9063 ft 208 kts 39°
2026-04-23 17:27 4.74604 -75.94321 8943 ft 182 kts 58°
2026-04-23 17:27 4.75154 -75.93276 8804 ft 174 kts 62°
2026-04-23 17:27 4.75593 -75.92182 8637 ft 157 kts 68°
2026-04-23 17:27 4.75892 -75.91204 8455 ft 143 kts 73°
2026-04-23 17:28 4.76141 -75.90243 8326 ft 140 kts 73°
2026-04-23 17:28 4.76368 -75.89296 8271 ft 144 kts 73°
2026-04-23 17:28 4.76623 -75.88299 8150 ft 150 kts 72°
2026-04-23 17:28 4.76913 -75.87279 8014 ft 153 kts 71°
2026-04-23 17:29 4.77231 -75.86262 7876 ft 155 kts 70°
2026-04-23 17:29 4.77559 -75.85277 7816 ft 143 kts 69°
2026-04-23 17:29 4.78210 -75.83370 7514 ft 145 kts 69°
2026-04-23 17:30 4.78530 -75.82410 7372 ft 144 kts 69°
2026-04-23 17:30 4.79148 -75.80504 7087 ft 143 kts 70°
2026-04-23 17:30 4.79452 -75.79557 6945 ft 142 kts 70°
2026-04-23 17:31 4.79754 -75.78618 6795 ft 141 kts 70°
2026-04-23 17:31 4.80077 -75.77642 6035 ft 158 kts 70°
2026-04-23 17:31 4.80431 -75.76559 5253 ft 159 kts 71°
2026-04-23 17:31 4.80741 -75.75571 4881 ft 150 kts 72°
2026-04-23 17:32 4.81068 -75.74584 4763 ft 121 kts 71°
2026-04-23 17:32 4.81311 -75.73861 5185 ft 121 kts 70°
2026-04-23 17:32 4.81615 -75.72954 5492 ft 141 kts 70°
2026-04-23 17:32 4.81925 -75.72022 5990 ft 149 kts 71°
2026-04-23 17:33 4.82279 -75.70858 5656 ft 190 kts 77°
2026-04-23 17:33 4.82449 -75.69482 5484 ft 199 kts 88°
2026-04-23 17:33 4.82372 -75.68228 6711 ft 157 kts 98°
2026-04-23 17:33 4.82128 -75.67233 7731 ft 152 kts 106°
2026-04-23 17:34 4.81692 -75.66156 8106 ft 180 kts 115°
2026-04-23 17:34 4.80803 -75.65163 8436 ft 207 kts 145°
2026-04-23 17:34 4.77639 -75.64384 8090 ft 265 kts 176°
2026-04-23 17:35 4.75779 -75.64651 7639 ft 281 kts 200°
2026-04-23 17:35 4.72951 -75.67343 6754 ft 291 kts 246°
2026-04-23 17:35 4.72521 -75.69330 6333 ft 294 kts 268°
2026-04-23 17:36 4.72717 -75.71345 6230 ft 285 kts 278°
2026-04-23 17:36 4.72977 -75.73286 6152 ft 279 kts 276°
2026-04-23 17:36 4.73193 -75.75195 6061 ft 269 kts 275°
2026-04-23 17:36 4.73386 -75.76986 6039 ft 249 kts 275°
2026-04-23 17:37 4.73568 -75.78673 6035 ft 235 kts 275°
2026-04-23 17:37 4.73740 -75.80272 6036 ft 228 kts 275°
2026-04-23 17:37 4.73928 -75.83358 6039 ft 219 kts 266°
2026-04-23 17:38 4.73720 -75.84873 6035 ft 217 kts 255°
2026-04-23 17:38 4.73175 -75.86261 6043 ft 215 kts 243°
2026-04-23 17:38 4.72497 -75.87518 6290 ft 188 kts 240°
2026-04-23 17:38 4.71936 -75.88703 5985 ft 194 kts 251°
2026-04-23 17:39 4.72000 -75.90125 5247 ft 214 kts 287°
2026-04-23 17:39 4.72811 -75.91175 5528 ft 166 kts 320°
2026-04-23 17:39 4.73712 -75.91738 5707 ft 144 kts 329°
2026-04-23 17:39 4.74646 -75.92005 5717 ft 145 kts 360°
2026-04-23 17:40 4.75562 -75.91554 5529 ft 154 kts 44°
2026-04-23 17:40 4.76027 -75.90678 5702 ft 130 kts 70°
2026-04-23 17:40 4.76286 -75.89850 5905 ft 124 kts 74°
2026-04-23 17:40 4.76514 -75.89015 6052 ft 121 kts 75°
2026-04-23 17:41 4.76725 -75.88141 6070 ft 137 kts 76°
2026-04-23 17:41 4.77242 -75.86234 6004 ft 144 kts 73°
2026-04-23 17:41 4.77549 -75.85278 5998 ft 144 kts 71°
2026-04-23 17:42 4.78196 -75.83376 5998 ft 143 kts 71°
2026-04-23 17:42 4.78512 -75.82435 5995 ft 143 kts 71°
2026-04-23 17:42 4.78834 -75.81464 5821 ft 150 kts 71°
2026-04-23 17:43 4.79152 -75.80469 5615 ft 149 kts 71°
2026-04-23 17:43 4.79461 -75.79490 5413 ft 146 kts 71°
2026-04-23 17:43 4.79779 -75.78524 5202 ft 146 kts 70°
2026-04-23 17:43 4.80103 -75.77541 5006 ft 148 kts 71°
2026-04-23 17:44 4.80425 -75.76567 4820 ft 147 kts 71°
2026-04-23 17:44 4.80726 -75.75617 4634 ft 139 kts 72°
2026-04-23 17:44 4.81228 -75.74101 4424 ft 82 kts 72°
2026-04-23 17:45 4.81346 -75.73713 4423 ft 13 kts 74°
2026-04-23 17:45 4.81387 -75.73594 4423 ft 20 kts 71°
2026-04-23 17:45 4.81409 -75.73534 4423 ft 12 kts 70°
2026-04-23 17:46 4.81488 -75.73498 4423 ft 2 kts 341°
2026-04-23 17:46 4.81495 -75.73544 4423 ft 8 kts 262°
2026-04-23 17:46 4.81482 -75.73585 4423 ft 8 kts 243°
2026-04-23 17:47 4.81490 -75.73606 4423 ft 7 kts 345°
2026-04-23 17:47 4.81508 -75.73598 4423 ft 6 kts 38°
2026-04-23 17:47 4.81533 -75.73605 4423 ft 0 kts 343°